Tetouan, Morocco

9:21 AM WET on January 22, 2017 (GMT +0000)
Sania Ramel

Weather History for GMTN - September, 2012

Change the Weather History Date:

Sunday, September 16, 2012

  Actual Average Record
Temperature  
Mean Temperature 73 °F -  
Max Temperature 82 °F 75 °F 88 °F (2013)
Min Temperature 64 °F 63 °F 59 °F (2016)
Cooling Degree Days 8    
Growing Degree Days 23 (Base 50)    
Moisture  
Dew Point 62 °F    
Average Humidity 66    
Maximum Humidity 94    
Minimum Humidity 38    
Precipitation  
Precipitation 0.00 in - - ()
Sea Level Pressure  
Sea Level Pressure 29.95 in    
Wind  
Wind Speed 6 mph ()    
Max Wind Speed 12 mph    
Max Gust Speed -    
Visibility 3.6 miles    
Events      
Averages and records for this station are not official NWS values.
T = Trace of Precipitation, MM = Missing Value Source: Averaged Metar Reports

Daily Weather History Graph

Daily Weather History Graph

Search for Another Location

Airport or City:

Trip Planner

Search our weather history database for the weather conditions in past years. The results will help you decide how hot, cold, wet, or windy it might be!

Date:

Astronomy

Sep. 16, 2012 Rise Set
Actual Time 7:04 AM WEST 7:26 PM WEST
Civil Twilight 6:39 AM WEST 7:52 PM WEST
Nautical Twilight 6:09 AM WEST 8:21 PM WEST
Astronomical Twilight 5:38 AM WEST 8:52 PM WEST
Moon 7:25 AM WEST (9/16) 7:27 PM WEST (9/16)
Length of Visible Light 13h 12m
Length of Day
12h 21m
New Moon, 0% of the Moon is Illuminated
Sep 16
New Moon
Sep 22
First Quarter
Sep 30
Full
Oct 8
Last Quarter
Oct 15
New

Hourly Weather History & Observations

Time (WEST) Temp. Heat Index Dew Point Humidity Pressure Visibility Wind Dir Wind Speed Gust Speed Precip Events Conditions
7:00 AM 65 °F - 63 °F 91% 29.95 in 0 mi Calm Calm - -   Scattered Clouds
7:00 AM 66.2 °F - 62.6 °F 88% 29.95 in 3.1 mi SSW 6.9 mph - N/A   Partly Cloudy
8:00 AM 64.4 °F - 62.6 °F 94% 29.95 in 3.1 mi Variable 2.3 mph - N/A   Partly Cloudy
9:00 AM 69.8 °F - 62.6 °F 78% 29.95 in 3.1 mi SSW 10.4 mph - N/A   Partly Cloudy
10:00 AM 75 °F - 64 °F 61% 29.99 in 4 mi SSW 8.1 mph - -  
10:00 AM 75.2 °F - 64.4 °F 69% 29.98 in 3.7 mi SSW 8.1 mph - N/A   Unknown
12:00 PM 80.6 °F 81.5 °F 60.8 °F 51% 29.98 in 3.7 mi East 8.1 mph - N/A   Unknown
1:00 PM 79 °F - 62 °F 47% 29.97 in 4 mi East 11.5 mph - -  
1:00 PM 78.8 °F - 62.6 °F 57% 29.95 in 3.7 mi East 11.5 mph - N/A   Unknown
2:00 PM 80.6 °F 81.5 °F 60.8 °F 51% 29.95 in 3.7 mi East 10.4 mph - N/A   Unknown
3:00 PM 80.6 °F 81.5 °F 60.8 °F 51% 29.95 in 3.7 mi East 10.4 mph - N/A   Unknown
4:00 PM 81 °F - 60 °F 38% 29.94 in 4 mi East 9.2 mph - -  
4:00 PM 80.6 °F 81.1 °F 59.0 °F 48% 29.92 in 3.7 mi East 9.2 mph - N/A   Unknown
5:00 PM 78.8 °F - 62.6 °F 57% 29.92 in 3.7 mi East 8.1 mph - N/A   Unknown
7:00 PM 74 °F - 63 °F 60% 29.94 in 6 mi NE 3.5 mph - -  
7:00 PM 77.0 °F - 62.6 °F 61% 29.92 in - ENE 6.9 mph - N/A   Clear
8:00 PM 71.6 °F - 62.6 °F 73% 29.92 in - Variable 2.3 mph - N/A   Clear
9:00 PM 69.8 °F - 62.6 °F 78% 29.95 in - Calm Calm - N/A   Clear
10:00 PM 71 °F - 63 °F 69% 29.97 in 5 mi NNW 4.6 mph - -  
10:00 PM 69.8 °F - 62.6 °F 78% 29.95 in 5.0 mi NNW 4.6 mph - N/A   Unknown
11:00 PM 71.6 °F - 64.4 °F 78% 29.95 in 2.2 mi SSW 4.6 mph - N/A   Unknown